TimeEDT,TemperatureF,Dew PointF,Humidity,Sea Level PressureIn,VisibilityMPH,Wind Direction,Wind SpeedMPH,Gust SpeedMPH,PrecipitationIn,Events,Conditions,WindDirDegrees,DateUTC
12:58 AM,73.4,66.9,80,30.11,8.0,West,3.5,-,N/A,,Clear,280,2013-07-16 04:58:00
1:58 AM,71.4,66.9,86,30.11,8.0,West,3.5,-,N/A,,Clear,280,2013-07-16 05:58:00
2:58 AM,70.3,64.9,83,30.11,8.0,West,3.5,-,N/A,,Clear,270,2013-07-16 06:58:00
3:58 AM,69.3,64.4,84,30.10,8.0,WNW,4.6,-,N/A,,Clear,290,2013-07-16 07:58:00
4:58 AM,68.5,64.6,87,30.11,8.0,West,4.6,-,N/A,,Clear,270,2013-07-16 08:58:00
5:58 AM,69.4,65.8,88,30.13,8.0,West,3.5,-,N/A,,Clear,270,2013-07-16 09:58:00
6:58 AM,72.9,66.7,81,30.13,10.0,West,2.3,-,N/A,,Partly Cloudy,260,2013-07-16 10:58:00
7:58 AM,77.9,67.5,70,30.14,10.0,WNW,4.6,-,N/A,,Partly Cloudy,300,2013-07-16 11:58:00
8:58 AM,82.6,68.9,63,30.14,10.0,WNW,5.8,-,N/A,,Clear,300,2013-07-16 12:58:00
9:58 AM,86.4,70.2,58,30.14,10.0,NW,5.8,-,N/A,,Clear,310,2013-07-16 13:58:00
10:58 AM,88.9,68.2,50,30.13,10.0,North,6.9,-,N/A,,Partly Cloudy,10,2013-07-16 14:58:00
11:58 AM,90.3,68.5,49,30.13,10.0,Variable,3.5,-,N/A,,Partly Cloudy,0,2013-07-16 15:58:00
12:58 PM,91.2,68.0,46,30.12,10.0,NNW,8.1,-,N/A,,Partly Cloudy,340,2013-07-16 16:58:00
1:58 PM,90.3,71.2,53,30.11,10.0,East,8.1,-,N/A,,Partly Cloudy,100,2013-07-16 17:58:00
2:59 PM,87.8,69.3,54,30.12,10.0,East,8.1,-,N/A,,Mostly Cloudy,100,2013-07-16 18:59:00
3:58 PM,81.3,66.6,61,30.12,10.0,SE,9.2,-,N/A,,Mostly Cloudy,130,2013-07-16 19:58:00
4:58 PM,82.0,68.5,63,30.12,10.0,SE,8.1,-,N/A,,Mostly Cloudy,130,2013-07-16 20:58:00
5:58 PM,83.1,66.9,58,30.13,10.0,Variable,3.5,-,N/A,,Mostly Cloudy,0,2013-07-16 21:58:00
6:58 PM,81.0,65.5,59,30.12,10.0,SSE,5.8,-,N/A,,Mostly Cloudy,160,2013-07-16 22:58:00
7:58 PM,77.9,64.8,64,30.13,10.0,South,2.3,-,N/A,,Scattered Clouds,170,2013-07-16 23:58:00
8:58 PM,75.4,64.9,70,30.15,10.0,Calm,Calm,-,N/A,,Partly Cloudy,0,2013-07-17 00:58:00
9:58 PM,74.1,65.3,74,30.16,10.0,South,2.3,-,N/A,,Clear,170,2013-07-17 01:58:00
10:58 PM,72.7,65.5,78,30.16,10.0,South,2.3,-,N/A,,Clear,190,2013-07-17 02:58:00
11:58 PM,71.8,66.0,82,30.17,10.0,Calm,Calm,-,N/A,,Clear,0,2013-07-17 03:58:00